HYS1326 LRTR-LROP

Flight info

Callsign HYS1326
Flight time N/A
Altitude 27000
Route DITAX3E DITAX DCT LAMIT DCT TOSVI TOSVI3X
Aircraft A320/M-SDE3FGHIRWY/LB1

Departure

Time 2026-04-24 12:11
Airport Timișoara Traian Vuia International Airport (LRTR)

Arrival

Time N/A
Airport Bucharest Henri Coandă International Airport (LROP)
Time Latitude Longitude Altitude Speed Heading
2026-04-24 11:38 45.81080 21.32082 350 ft 0 kts 200°
2026-04-24 11:56 45.81093 21.32088 353 ft 3 kts 193°
2026-04-24 11:57 45.81112 21.32092 348 ft 3 kts 170°
2026-04-24 11:57 45.81129 21.32083 347 ft 3 kts 130°
2026-04-24 11:57 45.81135 21.32071 348 ft 0 kts 110°
2026-04-24 12:00 45.81134 21.32073 342 ft 1 kts 110°
2026-04-24 12:00 45.81127 21.32101 342 ft 4 kts 110°
2026-04-24 12:01 45.81114 21.32154 348 ft 8 kts 110°
2026-04-24 12:01 45.81093 21.32236 348 ft 10 kts 110°
2026-04-24 12:01 45.81068 21.32334 345 ft 11 kts 110°
2026-04-24 12:01 45.81053 21.32438 342 ft 10 kts 63°
2026-04-24 12:02 45.81089 21.32514 342 ft 10 kts 91°
2026-04-24 12:02 45.81065 21.32616 348 ft 12 kts 110°
2026-04-24 12:02 45.81035 21.32734 347 ft 13 kts 110°
2026-04-24 12:02 45.81002 21.32868 343 ft 15 kts 109°
2026-04-24 12:03 45.80964 21.33019 350 ft 17 kts 109°
2026-04-24 12:03 45.80923 21.33185 347 ft 19 kts 110°
2026-04-24 12:03 45.80877 21.33367 349 ft 18 kts 110°
2026-04-24 12:03 45.80883 21.33514 352 ft 15 kts 44°
2026-04-24 12:04 45.80968 21.33567 350 ft 12 kts 19°
2026-04-24 12:04 45.81014 21.33666 348 ft 14 kts 101°
2026-04-24 12:04 45.80979 21.33804 349 ft 15 kts 110°
2026-04-24 12:04 45.80940 21.33960 351 ft 18 kts 110°
2026-04-24 12:05 45.80895 21.34137 346 ft 20 kts 109°
2026-04-24 12:05 45.80845 21.34337 338 ft 23 kts 110°
2026-04-24 12:05 45.80790 21.34557 338 ft 24 kts 110°
2026-04-24 12:05 45.80731 21.34791 346 ft 25 kts 110°
2026-04-24 12:06 45.80669 21.35036 349 ft 27 kts 110°
2026-04-24 12:06 45.80604 21.35298 350 ft 29 kts 109°
2026-04-24 12:06 45.80534 21.35576 350 ft 30 kts 110°
2026-04-24 12:06 45.80503 21.35804 344 ft 17 kts 84°
2026-04-24 12:07 45.80490 21.35870 349 ft 2 kts 160°
2026-04-24 12:07 45.80484 21.35868 346 ft 1 kts 195°
2026-04-24 12:07 45.80483 21.35866 346 ft 2 kts 207°
2026-04-24 12:09 45.80477 21.35859 353 ft 3 kts 216°
2026-04-24 12:09 45.80470 21.35822 352 ft 4 kts 270°
2026-04-24 12:09 45.80477 21.35795 342 ft 0 kts 291°
2026-04-24 12:10 45.80483 21.35773 351 ft 12 kts 291°
2026-04-24 12:11 45.80843 21.34342 339 ft 131 kts 290°
2026-04-24 12:11 45.81194 21.32965 506 ft 158 kts 291°
2026-04-24 12:11 45.81561 21.31468 1092 ft 161 kts 289°
2026-04-24 12:11 45.81932 21.29956 1795 ft 161 kts 288°
2026-04-24 12:12 45.82306 21.28439 2362 ft 165 kts 289°
2026-04-24 12:12 45.82722 21.26786 2669 ft 187 kts 289°
2026-04-24 12:12 45.83193 21.24924 2947 ft 209 kts 289°
2026-04-24 12:12 45.83690 21.22950 3713 ft 211 kts 289°
2026-04-24 12:13 45.84191 21.20957 4520 ft 214 kts 289°
2026-04-24 12:13 45.84697 21.18939 5309 ft 217 kts 289°
2026-04-24 12:13 45.85209 21.16895 6097 ft 219 kts 289°
2026-04-24 12:13 45.85726 21.14823 6852 ft 222 kts 289°
2026-04-24 12:14 45.85900 21.12583 7345 ft 241 kts 259°
2026-04-24 12:14 45.85198 21.10270 7702 ft 268 kts 233°
2026-04-24 12:14 45.83682 21.08629 8292 ft 285 kts 202°
2026-04-24 12:14 45.81686 21.08392 8987 ft 297 kts 168°
2026-04-24 12:15 45.79830 21.09718 9685 ft 305 kts 135°
2026-04-24 12:15 45.78599 21.12207 10253 ft 314 kts 114°
2026-04-24 12:15 45.77783 21.15209 10437 ft 335 kts 104°
2026-04-24 12:15 45.77151 21.18537 10640 ft 355 kts 101°
2026-04-24 12:16 45.76553 21.22020 11178 ft 363 kts 101°
2026-04-24 12:16 45.75909 21.25536 11833 ft 367 kts 103°
2026-04-24 12:16 45.75438 21.27875 12289 ft 370 kts 104°
2026-04-24 12:16 45.74400 21.32549 13174 ft 374 kts 105°
2026-04-24 12:17 45.73559 21.36095 13841 ft 378 kts 106°
2026-04-24 12:17 45.72693 21.39658 14444 ft 381 kts 106°
2026-04-24 12:17 45.71814 21.43250 15032 ft 383 kts 106°
2026-04-24 12:17 45.70936 21.46859 15610 ft 385 kts 105°
2026-04-24 12:18 45.70343 21.49313 15998 ft 387 kts 105°
2026-04-24 12:18 45.69479 21.52911 16552 ft 389 kts 105°
2026-04-24 12:18 45.68602 21.56583 17146 ft 391 kts 105°
2026-04-24 12:18 45.67719 21.60277 17742 ft 394 kts 105°
2026-04-24 12:19 45.66830 21.63991 18341 ft 396 kts 105°
2026-04-24 12:19 45.65931 21.67731 18833 ft 399 kts 104°
2026-04-24 12:19 45.65025 21.71496 19359 ft 402 kts 104°
2026-04-24 12:19 45.64113 21.75283 19893 ft 404 kts 104°
2026-04-24 12:20 45.63193 21.79087 20429 ft 406 kts 104°
2026-04-24 12:20 45.62267 21.82916 20934 ft 409 kts 104°
2026-04-24 12:20 45.61336 21.86764 21419 ft 411 kts 104°
2026-04-24 12:20 45.60399 21.90629 21894 ft 413 kts 104°
2026-04-24 12:21 45.59452 21.94516 22355 ft 415 kts 104°
2026-04-24 12:21 45.58496 21.98418 22852 ft 418 kts 104°
2026-04-24 12:21 45.57536 22.02343 23304 ft 420 kts 104°
2026-04-24 12:21 45.56572 22.06289 23724 ft 422 kts 104°
2026-04-24 12:22 45.55604 22.10257 24103 ft 425 kts 104°
2026-04-24 12:22 45.54627 22.14244 24473 ft 427 kts 104°
2026-04-24 12:22 45.53641 22.18245 24843 ft 429 kts 104°
2026-04-24 12:22 45.52649 22.22264 25220 ft 431 kts 104°
2026-04-24 12:23 45.51653 22.26296 25568 ft 433 kts 104°
2026-04-24 12:23 45.50652 22.30353 25902 ft 435 kts 104°
2026-04-24 12:23 45.49641 22.34438 26274 ft 437 kts 104°
2026-04-24 12:23 45.48639 22.38478 26617 ft 440 kts 104°
2026-04-24 12:24 45.47602 22.42657 26936 ft 442 kts 104°
2026-04-24 12:24 45.46587 22.46734 27007 ft 444 kts 104°
2026-04-24 12:24 45.45552 22.50879 26994 ft 444 kts 104°
2026-04-24 12:24 45.44512 22.55022 27010 ft 445 kts 104°
2026-04-24 12:25 45.43469 22.59172 26995 ft 445 kts 104°
2026-04-24 12:25 45.42425 22.63322 26997 ft 446 kts 104°
2026-04-24 12:25 45.41381 22.67475 26988 ft 446 kts 104°
2026-04-24 12:25 45.40336 22.71628 26984 ft 445 kts 104°
2026-04-24 12:26 45.39289 22.75780 26976 ft 446 kts 104°
2026-04-24 12:26 45.38241 22.79929 26978 ft 446 kts 104°
2026-04-24 12:26 45.37190 22.84086 26979 ft 446 kts 104°
2026-04-24 12:26 45.36137 22.88237 26977 ft 446 kts 104°
2026-04-24 12:27 45.35082 22.92380 26968 ft 446 kts 104°
2026-04-24 12:27 45.34025 22.96524 26964 ft 446 kts 104°
2026-04-24 12:27 45.32969 23.00664 26964 ft 446 kts 104°
2026-04-24 12:27 45.31910 23.04810 26974 ft 446 kts 104°
2026-04-24 12:28 45.30852 23.08949 26968 ft 446 kts 104°
2026-04-24 12:28 45.29789 23.13097 26963 ft 446 kts 104°
2026-04-24 12:28 45.28726 23.17235 26953 ft 446 kts 104°
2026-04-24 12:28 45.27660 23.21372 26949 ft 446 kts 104°
2026-04-24 12:29 45.26594 23.25508 26946 ft 446 kts 104°
2026-04-24 12:29 45.25528 23.29644 26946 ft 447 kts 104°
2026-04-24 12:29 45.24461 23.33781 26943 ft 447 kts 104°
2026-04-24 12:29 45.23391 23.37926 26945 ft 447 kts 104°
2026-04-24 12:30 45.22321 23.42065 26949 ft 447 kts 104°
2026-04-24 12:30 45.21246 23.46203 26941 ft 447 kts 104°
2026-04-24 12:30 45.20182 23.50281 26939 ft 447 kts 104°
2026-04-24 12:30 45.19100 23.54405 26938 ft 447 kts 104°
2026-04-24 12:31 45.18014 23.58536 26941 ft 447 kts 105°
2026-04-24 12:31 45.16931 23.62663 26942 ft 447 kts 104°
2026-04-24 12:31 45.15847 23.66793 26944 ft 447 kts 104°
2026-04-24 12:31 45.14764 23.70918 26957 ft 447 kts 104°
2026-04-24 12:32 45.13678 23.75050 26953 ft 447 kts 104°
2026-04-24 12:32 45.12592 23.79172 26952 ft 447 kts 105°
2026-04-24 12:32 45.11503 23.83297 26950 ft 447 kts 105°
2026-04-24 12:32 45.10415 23.87415 26943 ft 447 kts 105°
2026-04-24 12:33 45.09324 23.91533 26941 ft 447 kts 105°
2026-04-24 12:33 45.08232 23.95643 26936 ft 446 kts 105°
2026-04-24 12:33 45.07138 23.99756 26931 ft 446 kts 105°
2026-04-24 12:33 45.06044 24.03863 26931 ft 447 kts 105°
2026-04-24 12:34 45.04946 24.07979 26950 ft 447 kts 105°
2026-04-24 12:34 45.03849 24.12086 26942 ft 447 kts 105°
2026-04-24 12:34 45.02747 24.16201 26942 ft 447 kts 105°
2026-04-24 12:34 45.01642 24.20310 26933 ft 447 kts 105°
2026-04-24 12:35 45.00534 24.24417 26933 ft 447 kts 105°
2026-04-24 12:35 44.99426 24.28525 26933 ft 447 kts 105°
2026-04-24 12:35 44.98319 24.32633 26932 ft 447 kts 105°
2026-04-24 12:35 44.97213 24.36741 26929 ft 447 kts 105°
2026-04-24 12:36 44.96105 24.40844 26943 ft 448 kts 105°
2026-04-24 12:36 44.94992 24.44951 26940 ft 448 kts 105°
2026-04-24 12:36 44.93875 24.49064 26937 ft 448 kts 105°
2026-04-24 12:36 44.92757 24.53171 26934 ft 449 kts 105°
2026-04-24 12:37 44.91635 24.57279 26933 ft 448 kts 105°
2026-04-24 12:37 44.90513 24.61384 26932 ft 448 kts 105°
2026-04-24 12:37 44.89391 24.65488 26930 ft 448 kts 105°
2026-04-24 12:37 44.88272 24.69584 26927 ft 448 kts 105°
2026-04-24 12:38 44.87153 24.73681 26939 ft 448 kts 105°
2026-04-24 12:38 44.86030 24.77784 26930 ft 448 kts 105°
2026-04-24 12:38 44.84904 24.81883 26919 ft 449 kts 105°